Location: Unspecified
(51.0847°N, 0.0000°E)
Time: 14:10:54
(UTC+00:00)

Vanguard 2 - All Passes

Search period start: 04 April 2026 00:00
Search period end: 14 April 2026 00:00
Orbit: 554 x 2896 km, 32.9° (Epoch: 29 March)

Date Brightness Start Highest point End Pass type
(mag) Time Alt. Az. Time Alt. Az. Time Alt. Az.
4 Apr - 15:49:58 10° SSW 15:54:55 19° SSE 16:01:31 10° ESE daylight
4 Apr - 17:55:07 10° SW 18:02:17 27° S 18:12:32 10° SE daylight
4 Apr - 20:02:37 10° WSW 20:10:40 23° SSW 20:21:11 10° SSE visible
4 Apr - 22:16:21 10° SW 22:19:13 11° SW 22:22:14 10° SSW visible
5 Apr - 16:01:12 10° SSW 16:06:17 20° SSE 16:13:12 10° ESE daylight
5 Apr - 18:06:49 10° SW 18:13:48 26° S 18:23:39 10° SE daylight
5 Apr - 20:14:55 10° WSW 20:22:09 19° SSW 20:31:19 10° SSE visible
6 Apr - 16:12:35 10° SSW 16:17:42 21° SSE 16:24:44 10° ESE daylight
6 Apr - 18:18:38 10° SW 18:25:19 24° S 18:34:34 10° SE daylight
6 Apr - 20:27:36 10° SW 20:33:38 16° SSW 20:40:54 10° S visible
7 Apr - 14:21:26 10° SSE 14:22:33 10° SSE 14:23:43 10° SE daylight
7 Apr - 16:24:04 10° SW 16:29:09 21° S 16:36:08 10° SE daylight
7 Apr - 18:30:35 10° SW 18:36:50 21° S 18:45:17 10° SSE daylight
7 Apr - 20:41:17 10° SW 20:45:06 12° SSW 20:49:20 10° S visible
8 Apr - 14:31:39 10° S 14:33:52 12° SSE 14:36:25 10° SE daylight
8 Apr - 16:35:41 10° SW 16:40:39 21° S 16:47:24 10° SE daylight
8 Apr - 18:42:44 10° SW 18:48:22 18° SSW 18:55:41 10° SSE daylight
9 Apr - 14:42:35 10° S 14:45:15 13° SSE 14:48:24 10° SE daylight
9 Apr - 16:47:24 10° SW 16:52:09 19° S 16:58:30 10° SE daylight
9 Apr - 18:55:15 10° SW 18:59:54 15° SSW 19:05:36 10° SSE daylight
10 Apr - 14:53:48 10° SSW 14:56:39 14° SSE 15:00:05 10° SE daylight
10 Apr - 16:59:17 10° SW 17:03:42 17° S 17:09:23 10° SSE daylight
10 Apr - 19:08:43 10° SW 19:11:26 11° SSW 19:14:27 10° S visible
11 Apr - 15:05:15 10° SSW 15:08:07 14° S 15:11:33 10° SE daylight
11 Apr - 17:11:25 10° SW 17:15:14 15° S 17:19:59 10° SSE daylight
12 Apr - 15:16:53 10° SSW 15:19:36 14° S 15:22:49 10° SE daylight
12 Apr - 17:23:59 10° SSW 17:26:46 12° S 17:30:01 10° S daylight
13 Apr - 15:28:45 10° SSW 15:31:06 13° S 15:33:49 10° SSE daylight
